Location: Barruelo
(41.2448°N, 3.8231°W)
Time: 21:15:33
(UTC+00:00)

Meteor 2-10 - Pass Details

Date: 11 December 2025
Orbit: 737 x 865 km, 81.2° (Epoch: 12 January)

Event Time Altitude Azimuth Distance (km) Brightness Sun altitude
Rises 18:50:16 0° 348° (NNW) 3,304 7.3 -22.5°
Reaches altitude 10° 18:52:38 10° 346° (NNW) 2,389 6.6 -22.9°
Maximum altitude 18:58:01 73° 263° (W) 865 4.3 -23.9°
Drops below altitude 10° 19:03:33 10° 180° (S) 2,453 6.7 -25.0°
Sets 19:06:00 0° 178° (S) 3,398 7.4 -25.4°
